Regional Weather Roundup
Issued by NWS Newport/Morehead, NC

Current Version | Previous Version | Text Only | Print | Product List | Glossary On
Versions: 1 2 3 4 5 6 7 8 9 10 11 12 13 14 15 16 17 18 19 20 21 22 23 24 25 26 27 28 29 30 31 32 33 34 35 36 37 38 39 40 41 42 43 44 45 46 47 48 49 50
000 ASUS42 KMHX 291113 RWRMHX WEATHER ROUNDUP FOR EASTERN NORTH CAROLINA NATIONAL WEATHER SERVICE NEWPORT/MOREHEAD CITY NC 700 AM EDT FRI APR 29 2016 NOTE: "FAIR" INDICATES FEW OR NO CLOUDS BELOW 12,000 FEET WITH NO SIGNIFICANT WEATHER AND/OR OBSTRUCTIONS TO VISIBILITY NCZ015>017-031-032-045>047-102-103-291200- NORTH COAST CITY SKY/WX TMP DP RH WIND PRES REMARKS EDENTON CLOUDY 59 59 100 N8 29.94R ELIZABETH CITY CLOUDY 55 54 96 N15 29.95R KITTY HAWK CLOUDY 55 55 100 N7 29.91S FOG MANTEO NOT AVBL $$ NCZ045>047-081-094-103-104-291200- CENTRAL COAST CITY SKY/WX TMP DP RH WIND PRES REMARKS FRISCO CLOUDY 62 62 100 VRB5 29.90R SWANQUARTER NOT AVBL $$ NCZ095-097-098-100-101-291200- SOUTHERN COAST CITY SKY/WX TMP DP RH WIND PRES REMARKS BEAUFORT CLOUDY 67 65 93 N12 29.91R CEDAR ISLAND NOT AVBL JACKSONVILLE PTCLDY 66 63 90 W7 29.90R PINEY ISLAND NOT AVBL WILMINGTON CLOUDY 67 65 93 NW3 29.91R FOG $$ NCZ011>013-027>030-043-044-078>080-089-090>093-098-291200- COASTAL PLAIN CITY SKY/WX TMP DP RH WIND PRES REMARKS AHOSKIE CLOUDY 55 55 97 N7 29.97R FOG CLINTON CLOUDY 66 66 100 CALM 29.93R FOG ELIZABETHTOWN CLEAR 64 64 100 CALM 29.93R GOLDSBORO CLOUDY 63 63 100 N3 29.92R GREENVILLE CLOUDY 59 59 100 N5 29.96R FOG HAVELOCK MOCLDY 67 65 93 N9 29.92R FOG KENANSVILLE CLOUDY 66 65 97 CALM 29.93R FOG KINSTON FOG 61 61 100 N3 29.94R VSB 1 NEW BERN CLOUDY 63 61 93 N9 29.93R FOG RICHLANDS MOCLDY 64 64 100 CALM 29.92R FOG ROCKY MOUNT CLOUDY 59 59 100 N12 29.96R FOG WASHINGTON CLOUDY 59 59 99 NE5 29.93R FOG WHITEVILLE CLOUDY 68 66 93 CALM 29.92R FOG $$ AMZ130-135-150-152-154-156-158-170-250-252-270-ANZ085-086-088-633-658-670-291200- MARINE OBSERVATIONS STATION/POSITION TIME TEMP WIND PRES WAVE SWELL AIR SEA DIR/SP/G HT/PER HT/PER (UTC) (F) (DEG/KT/KT) (MB) (FT/S) (FT/S) CHESAPEAKE LIGHT 1100 52 30/ 20/ 22 1014.5 64 E VA BEACH 1050 53 54 10/ 12/ 16 1013.4 4/ 7 3/ 7 DUCK 1000 55 67 350/ 19/ 21 1012.3 2 E DUCK 1011 58 N/A 4/ 5 OREGON INLET 1000 58 64 330/ 9/ 12 1012.4 13E OREGON INLT 1100 58 N/A 3/ 5 2/11 HATTERAS CG 1000 63 70 20/ 11/ 14 1011.9 DIAMOND BUOY 1050 66 71 30/ 12/ 16 1012.2 3/ 3 2/ 9 CAPE LOOKOUT 1100 67 320/ 7/ 9 1012.4 BEAUFORT LAB 1000 67 67 320/ 2/ 4 1010.7 30 SE NEW RVR IN 1025 67 N/A 4/ 6 27 SE WRIGHTSVLE 1008 70 69 290/ 8/ 10 1015.0 5 SE WRIGHTSVLE 1008 68 67 240/ 6/ 8 1012.8 225 S CAPE HAT 1050 71 71 200/ 12/ 14 1014.9 2/ 9 2/ 9 41 SE CHARLESTON 1050 72 72 250/ 12/ 14 1013.3 3/ 5 2/11 $$

USA.gov is the U.S. government's official web portal to all federal, state and local government web resources and services.